This demonstration page uses our WeatherBlox Daily Observations layout. Learn more.

Left ArrowRight Arrow

39.01783, -85.05884

Hourly Observations for July 30, 2021

Temp ( °F °C ) Dew Point ( °F °C ) Humidity (%) Winds ( mph kmh ) Pressure ( in mb ) Visibility ( mi km ) Precip ( " mm )
12:52 am 00:52 Cloudy 78 25.6 71 21.7 79 79 NW 10 17 29.91 1013 10 16 N/A
1:52 am 01:52 Cloudy 76 24.4 71 21.7 85 85 NNW 6 9 29.92 1013 10 16 N/A
2:52 am 02:52 Cloudy 75 23.9 71 21.7 88 88 W 6 9 29.94 1014 10 16 N/A
3:52 am 03:52 Mostly Cloudy 74 23.3 70 21.1 88 88 NNW 7 11 29.93 1014 10 16 N/A
4:52 am 04:52 Partly Cloudy 73 22.8 69 20.6 87 87 NNW 9 15 29.95 1014 10 16 N/A
5:52 am 05:52 Mostly Clear 72 22.2 68 20 87 87 N 9 15 29.95 1014 10 16 N/A
6:52 am 06:52 Cloudy 72 22.2 67 19.4 84 84 NNW 9 15 29.98 1015 7 11 N/A
7:52 am 07:52 Cloudy 72 22.2 67 19.4 84 84 N 7 11 29.98 1015 7 11 N/A
8:52 am 08:52 Cloudy 73 22.8 67 19.4 81 81 N 8 13 30.00 1016 7 11 N/A
9:02 am 09:02 Cloudy with Haze 73 22.8 67 19.4 81 81 N 9 15 30.00 1016 6 10 N/A
9:52 am 09:52 Cloudy 75 23.9 67 19.4 76 76 N 10 17 30.00 1016 7 11 N/A
10:52 am 10:52 Mostly Cloudy 78 25.6 66 18.9 67 67 NE 7 11 30.02 1017 8 13 N/A
11:52 am 11:52 Cloudy 79 26.1 65 18.3 62 62 NNW 7 11 30.02 1017 8 13 N/A
12:52 pm 12:52 Partly Cloudy 80 26.7 65 18.3 60 60 N 13 20 30.02 1017 8 13 N/A
1:52 pm 13:52 Partly Cloudy 82 27.8 63 17.2 53 53 NNW 13 20 30.01 1016 7 11 N/A
2:52 pm 14:52 Partly Cloudy 85 29.4 63 17.2 48 48 N 14 22 30.01 1016 7 11 N/A
3:52 pm 15:52 Partly Cloudy 84 28.9 60 15.6 44 44 N 10 17 30.01 1016 7 11 N/A
4:52 pm 16:52 Mostly Sunny 84 28.9 60 15.6 44 44 N 6 9 30.01 1016 8 13 N/A
5:52 pm 17:52 Hazy 83 28.3 56 13.3 40 40 NNW 9 15 30.01 1016 6 10 N/A
6:52 pm 18:52 Hazy 82 27.8 58 14.4 44 44 N 9 15 30.01 1016 5 8 N/A
7:52 pm 19:52 Hazy 79 26.1 60 15.6 52 52 N 10 17 30.00 1016 6 10 N/A
8:52 pm 20:52 Mostly Sunny 76 24.4 59 15 56 56 N 8 13 30.01 1016 8 13 N/A
9:52 pm 21:52 Mostly Clear 74 23.3 58 14.4 57 57 N 6 9 30.02 1017 10 16 N/A
10:52 pm 22:52 Clear 73 22.8 58 14.4 59 59 NNW 7 11 30.04 1017 10 16 N/A
11:52 pm 23:52 Clear 72 22.2 59 15 64 64 NNW 7 11 30.05 1018 10 16 N/A

Powered by AerisWeather